asian

Jackpot

Texas Poker Multi Jackpot System

Kini Telah hadir Jackpot SUPER ROYAL FLUSH

Kini Telah hadir Jackpot 2000 (khusus table VIP keatas).

Ikutilah global jackpot yang tersedia di system kami, dengan system jackpot terbaru dan pertama di indonesia, anda dapat membeli jackpot dengan harga 100 rupiah saja dan menangkan hadiahnya hingga puluhan juta rupiah.

Jackpot bukanlah suatu keharusan untuk dibeli, namun kami memberikan suatu fitur tambahan untuk member tercinta dari www.pokerofasian.com.

Terdapat tiga pilihan harga jackpot yang bisa anda beli yaitu :100,500,1000 dan 2000(khusus table VIP Keatas) rupiah.

Hadiah dari Multi jackpot system www.pokerofasian.com

  1. full house x 10 harga jackpot yang anda beli.
      (contoh:anda membeli 1000 maka:1000 X10 = 10.000)
  2. four of kind x 250 harga jackpot yang anda beli
      (contoh:anda membeli 1000 maka:1000 X250 = 250.000)
  3. Straight flush x 1200
      (contoh:anda membeli 1000 maka:1000 X1200 = 1.200.000)
  4. Royal flush x 10000 harga jackpot yang anda beli
      (contoh:anda membeli 1000 maka:1000 X10000 = 10.000.000)
  5. SUPER ROYAL FLUSH x 30000 harga jackpot yang anda beli
      (contoh:anda membeli 1000 maka:1000 X30000 = 30.000.000)

Kondisi kartu

  1. full house adalah kondisi kartu dimana kartu anda dan kartu tengah dengan total 7 kartu bisa mendapatkan nilai 5 kartu dengan kombinasi 1 tris(three of kind) dan 1 pair, contoh 3 kartu 10 dan 2 kartu 5
  2. Four of kind adalah kondisi kartu dimana kartu anda dan kartu tengah dengan total 7 kartu bisa mendapatkan nilai 5 kartu dengan kombinasi 4 kartu yang sama jumlah dan 1 kartu apapun juga contoh anda mendapatkan 4 buah kartu angka 3 dan 1 kartu apapun.
  3. Staright flush adalah kondisi kartu dimana kartu anda dan kartu tengah dengan total 7 kartu bisa mendapatkan nilai 5 kartu dengan kombinasi seri / staright dengan kembang yang sama contoh : urutan kartu dari angka 5, 6, 7, 8 , 9 10 dengan kembang yg sama misalnya as hati
  4. Royal flush adalah kondisi kartu dimana kartu anda dan kartu tengah dengan total 7 kartu bisa mendapatkan nilai 5 kartu dengan kombinasi seri / staright dengan kembang yang sama tetapi kartu tersebut haruslah dimulai dari 10. contoh 10, Queen, Jack, King dan aces dengan kembang yang sama
  5. Super Royal flush adalah kondisi kartu dimana Kedua kartu anda digabung dengan 3 kartu pertama meja haruslah royal flush. contoh kartu anda 10,Queen kembang sama dan 3 kartu pertama meja adalah Jack, King dan aces dengan kembang yang sama

Demikian adalah penjelasan dari Multi Jackpot www.pokerofasian.com terima kasih dan selamat bermain salam hoki dari kami

Texas Poker Jackpot Winner

TOP SUPER ROYAL FLUSH
No.TanggalNamaPriceWin
121/04 13:00SEMBILAN81Super Royal flush15,000,000
221/04 04:00B4NDARC3MESuper Royal flush3,000,000
321/04 03:38OSESIAMSuper Royal flush15,000,000
421/04 00:18ERLINDA88Super Royal flush30,000,000
520/04 21:16PENGAK25Super Royal flush6,000,000
TOP ROYAL FLUSH
No.TanggalNamaPriceWin
121/04 14:13SYAFFII132Royal flush2,000,000
221/04 13:42TETEH991Royal flush2,000,000
321/04 13:15JUJI040489Royal flush1,000,000
421/04 13:12REGGY212Royal flush2,000,000
521/04 12:59KENCUURRRoyal flush2,000,000
TOP STRAIGHT FLUSH
No.TanggalNamaPriceWin
121/04 14:23TERI130Straight Flush600,000
221/04 14:22ZA6666Straight Flush240,000
321/04 14:17TI3NO07Straight Flush120,000
421/04 14:15BOSGILA57Straight Flush600,000
521/04 14:14CERKYStraight Flush120,000
LATEST JACKPOT
No.TanggalNamaPriceWin
121/04 14:24TORA898Full House2,000
221/04 14:24QUEEN2711Full House2,000
321/04 14:24O4V27R7JF7Full House5,000
421/04 14:24DERO0GGWRJFull House1,000
521/04 14:24HATMAN11Full House5,000
621/04 14:24MAEDAH88Full House5,000
721/04 14:24RZX27Full House2,000
821/04 14:24BAGIKUPAIFull House5,000
921/04 14:24BDECONG7Full House5,000
1021/04 14:24M3R4UFFour Of A Kind50,000
1121/04 14:24LAHANG92Full House1,000
1221/04 14:24DDC5D136Full House2,000
1321/04 14:24BENSURFull House10,000
1421/04 14:24CB77MABEQ33Full House1,000
1521/04 14:24OSET09Full House10,000
1621/04 14:24ROSY89Full House5,000
1721/04 14:24AUN_86Full House2,000
1821/04 14:24KITINK15Full House5,000
1921/04 14:24ENJEL3XXFull House10,000
2021/04 14:24UVIKFull House10,000
2121/04 14:24BANGZUL86Full House2,000
2221/04 14:24HYIUGA22Four Of A Kind50,000
2321/04 14:24KRUCIL24Full House20,000
2421/04 14:24GTU451Full House20,000
2521/04 14:24TYTYT2Full House2,000
2621/04 14:24LAMBOK19Full House1,000
2721/04 14:24AB44NGFull House2,000
2821/04 14:24AHRIN29Full House2,000
2921/04 14:24SUGAN5000Full House10,000
3021/04 14:24CRIMMEMEXFull House2,000
3121/04 14:24D22NFull House2,000
3221/04 14:24DAUNHOQI99Full House5,000
3321/04 14:24KWOK7Full House2,000
3421/04 14:24ASIAWAY818Full House1,000
3521/04 14:24FREEE78Full House10,000
3621/04 14:24BEWEDFull House10,000
3721/04 14:24STEMPELFull House20,000
3821/04 14:24HML78Full House2,000
3921/04 14:24ZMJ0RT6B9XFull House2,000
4021/04 14:24OMKISMOFull House5,000
4121/04 14:24LACKIUFull House10,000
4221/04 14:23SRTLKING89Full House2,000
4321/04 14:23NIURANOMFull House500
4421/04 14:23HOQQY10Full House2,000
4521/04 14:23DOTI79Full House2,000
4621/04 14:23YOHOKIKOFour Of A Kind250,000
4721/04 14:23RKKET99Four Of A Kind50,000
4821/04 14:23RAFLY14Full House2,000
4921/04 14:23MSKINFull House5,000
5021/04 14:23RIK199999Full House1,000

Domino Multi Jackpot System

Ikutilah global jackpot yang tersedia di system kami, dengan system jackpot terbaru dan pertama di indonesia, anda dapat membeli jackpot dengan harga 100 rupiah saja dan menangkan hadiahnya hingga puluhan juta rupiah.

Jackpot bukanlah suatu keharusan untuk dibeli, namun kami memberikan suatu fitur tambahan untuk member tercinta dari www.pokerofasian.com.

Terdapat tiga pilihan harga jackpot yang bisa anda beli yaitu :100,500 dan 1000 rupiah.

Hadiah dari Multi jackpot system www.pokerofasian.com

  1. Murni Kecil x 50 harga jackpot yang anda beli.
      (contoh:anda membeli 1000 maka:1000 X 50 = 50.000)
  2. Murni Besar x 50 harga jackpot yang anda beli
      (contoh:anda membeli 1000 maka:1000 X 50 = 50.000)
  3. BALAK x 100 harga jackpot yang anda beli
      (contoh:anda membeli 1000 maka:1000 X 100 = 100.000)
  4. ENAM DEWA x 6666 harga jackpot yang anda beli
      (contoh:anda membeli 1000 maka:1000 X 6666 = 6.666.000)

Demikian adalah penjelasan dari Multi Jackpot www.pokerofasian.com terima kasih dan selamat bermain salam hoki dari kami

Domino Jackpot Winner

TOP ENAM DEWA
No.TanggalNamaPriceWin
121/04 09:18OUYAGmurni enam6,666,000
221/04 08:18SING_HASILmurni enam3,333,000
321/04 07:50KIKIW39murni enam6,666,000
421/04 07:18EV072murni enam3,333,000
521/04 07:03NINABOBO21murni enam666,600
TOP BALAK
No.TanggalNamaPriceWin
121/04 14:23DE795488balak10,000
221/04 14:21G3G32balak100,000
321/04 14:18AUFAA86balak50,000
421/04 14:10DOA__IBUbalak100,000
521/04 14:05MDRKING86balak100,000
LATEST JACKPOT
No.TanggalNamaPriceWin
121/04 14:24TUMINO9murni kecil25,000
221/04 14:24HAWKS777murni kecil50,000
321/04 14:23DE795488balak10,000
421/04 14:23NADAYmurni kecil50,000
521/04 14:22BORAK56murni besar5,000
621/04 14:21G3G32balak100,000
721/04 14:20ANDROMAX9murni besar50,000
821/04 14:19DIANWAEmurni besar5,000
921/04 14:18AUFAA86balak50,000
1021/04 14:18KULU3murni kecil25,000
1121/04 14:17DANG55murni besar25,000
1221/04 14:16IMELDA727murni kecil50,000
1321/04 14:15HOMUDWYI34murni besar50,000
1421/04 14:13KAK4NGmurni besar50,000
1521/04 14:13SER4N9_601murni besar50,000
1621/04 14:13AAAALDG194murni besar50,000
1721/04 14:12MDRKING86murni kecil50,000
1821/04 14:10DOA__IBUbalak100,000
1921/04 14:09KAMPLE9murni kecil50,000
2021/04 14:09NERAZUURAmurni kecil5,000
2121/04 14:09RD1979murni kecil50,000
2221/04 14:08G3G32murni besar50,000
2321/04 14:08IRWANNmurni kecil25,000
2421/04 14:08SEKELEmurni besar25,000
2521/04 14:07MESTAIYA30murni besar50,000
2621/04 14:07DOA__IBUmurni besar50,000
2721/04 14:05MDRKING86balak100,000
2821/04 14:05QEYY22murni kecil50,000
2921/04 14:04SLS6666balak100,000
3021/04 14:04JUB242QQ9Cmurni kecil25,000
3121/04 14:03KULU3murni besar25,000
3221/04 14:02S3DOT1murni besar25,000
3321/04 14:00T4DZEROSEVENmurni kecil5,000
3421/04 14:00MONOX123_murni besar50,000
3521/04 14:00MTA99BALAPmurni besar50,000
3621/04 14:00BOY040404balak100,000
3721/04 14:00MESDEDbalak50,000
3821/04 13:59JL8TJCOTKBbalak100,000
3921/04 13:58SIDE72murni besar50,000
4021/04 13:58LORONGTAC7balak100,000
4121/04 13:56E9DD3F56murni besar50,000
4221/04 13:56MESTAIYA30murni kecil25,000
4321/04 13:56RFND9A4Y6Hmurni besar25,000
4421/04 13:55PT4DADMINmurni besar25,000
4521/04 13:55NHKGV8G3NRmurni besar5,000
4621/04 13:55CUTZZZmurni besar5,000
4721/04 13:54VDZUWBP9J0balak100,000
4821/04 13:54AMIDAHLIAlucky992,500
4921/04 13:54ALIF037balak50,000
5021/04 13:52MACANKIPmurni besar50,000

Ceme Multi Jackpot System

Jackpot dilihat dari gabungan kartu pemain dengan kartu bandar. Bandar harus membeli jackpot sebanyak jumlah player yang sedang duduk. Sebagai contoh bila terdapat 3 pemain duduk bermain, dan bandar memutuskan untuk membeli jackpot Rp 1.000, maka pada periode tersebut bandar akan membeli jackpot sebanyak 3xRp1.000 = Rp3.000.

Jackpot bukanlah suatu keharusan untuk dibeli, namun kami memberikan suatu fitur tambahan untuk member tercinta dari www.pokerofasian.com.

Terdapat tiga pilihan harga jackpot yang bisa anda beli yaitu :100,500 dan 1000 rupiah.

Hadiah dari Multi jackpot system www.pokerofasian.com

  1. Murni Kecil x 50 harga jackpot yang anda beli.
      (contoh:anda membeli 1000 maka:1000 X 50 = 50.000)
  2. Murni Besar x 50 harga jackpot yang anda beli
      (contoh:anda membeli 1000 maka:1000 X 50 = 50.000)
  3. BALAK x 200 harga jackpot yang anda beli
      (contoh:anda membeli 1000 maka:1000 X 200 = 200.000)
  4. ENAM DEWA x 6666 harga jackpot yang anda beli
      (contoh:anda membeli 1000 maka:1000 X 6666 = 6.666.000)

Demikian adalah penjelasan dari Multi Jackpot www.pokerofasian.com terima kasih dan selamat bermain salam hoki dari kami

Ceme Jackpot Winner

TOP ENAM DEWA
No.TanggalNamaPriceWin
121/04 13:56BAMZ1982murni enam6,666,000
221/04 13:56BOYDON92murni enam3,333,000
321/04 13:15JOWO_O7murni enam666,600
421/04 12:42SBYPOKER00murni enam6,666,000
521/04 12:37J6D5FXSM01murni enam6,666,000
TOP BALAK
No.TanggalNamaPriceWin
121/04 14:24C4C66C3Abalak200,000
221/04 14:24DURNA86balak200,000
321/04 14:23ROSMINAbalak200,000
421/04 14:23YUKEM88balak200,000
521/04 14:23ROSMINAbalak200,000
LATEST JACKPOT
No.TanggalNamaPriceWin
121/04 14:24ALUXQQmurni kecil5,000
221/04 14:24P4BLO_04murni besar50,000
321/04 14:24KAON770murni besar5,000
421/04 14:24PUTRABADAmurni besar50,000
521/04 14:24GURDIANAmurni kecil25,000
621/04 14:24HOKI080990murni kecil50,000
721/04 14:24C4C66C3Abalak200,000
821/04 14:24DURNA86balak200,000
921/04 14:24QQTEROSS99murni besar50,000
1021/04 14:24PAKEKAKmurni besar5,000
1121/04 14:23CIDIK7murni kecil5,000
1221/04 14:23PANGLIMA6murni kecil50,000
1321/04 14:23ANGKUCOLAKmurni kecil50,000
1421/04 14:23BAJAYKUYmurni kecil50,000
1521/04 14:23ROSMINAbalak200,000
1621/04 14:23YUKEM88balak200,000
1721/04 14:23ROSMINAbalak200,000
1821/04 14:23USERHOKI1balak200,000
1921/04 14:23MUJURR77murni kecil5,000
2021/04 14:23DEDETBJXmurni kecil50,000
2121/04 14:23ELSA04murni kecil50,000
2221/04 14:22BRYANZ89murni kecil25,000
2321/04 14:22IDK890883murni besar25,000
2421/04 14:22XJ1162DDMMmurni besar25,000
2521/04 14:22AOP5GZL8C3murni besar5,000
2621/04 14:22LB99178murni kecil50,000
2721/04 14:22ASWIN18murni kecil50,000
2821/04 14:22RINGKEL9murni kecil25,000
2921/04 14:22ZXCV31murni kecil50,000
3021/04 14:22ABDULTOTTImurni kecil5,000
3121/04 14:22C7N5RUJ6ZOmurni kecil5,000
3221/04 14:22WANTEN69murni kecil5,000
3321/04 14:22W1SE6FDMV6murni kecil5,000
3421/04 14:22P4BLO_04murni kecil50,000
3521/04 14:22RIATMOKO78murni besar50,000
3621/04 14:21KANSHAA205murni kecil50,000
3721/04 14:21T4DSUSILOmurni kecil25,000
3821/04 14:21HAN45KAmurni besar50,000
3921/04 14:21W4KRU16murni besar25,000
4021/04 14:21ARFASKAmurni besar50,000
4121/04 14:21LECOPERmurni kecil50,000
4221/04 14:21SURGEON3murni kecil50,000
4321/04 14:21LECOPERmurni kecil50,000
4421/04 14:21PERKASA030murni kecil5,000
4521/04 14:21BAJAYKUYbalak200,000
4621/04 14:21G4R0N911murni besar50,000
4721/04 14:20ROSMINAmurni kecil25,000
4821/04 14:20ROSMINAmurni kecil25,000
4921/04 14:20JOYPUTRA68balak100,000
5021/04 14:20SANEELKLETmurni kecil25,000